To NAV CANADA Home Page Login to a new session Search on AWWS site Feedback and Comments Disclaimer Vers la page française équivalente Tips FAQ What's new on the site To the Forecasts and Observations / NOTAM section To "File a Flight Plan" website Publications and other links Update of the User's profile FIC Telephone Numbers My Weather Data Folder Route Weather Data Regional Weather Data Local Weather Data To the Forecasts and Observations / NOTAM section
Request Generated 04/30/2017 at 05:02:56 UTC . Weather information available at that time is displayed.

METAR/TAF

DEASE LAKE/BC    (show WxCam)

METAR CYDL 300500Z AUTO VRB02KT 9SM FEW120 04/M07 A2969 RMK SLP071=
METAR CYDL 300400Z AUTO VRB02KT 9SM FEW130 08/M07 A2968 RMK SLP064=
METAR CYDL 300300Z AUTO 17008KT 150V230 9SM SCT100 09/M12 A2967 RMK
SLP063 DENSITY ALT 2800FT=

*** REMARK        : Forecast period has ended; this was the last TAF issued
*** REMARQUE : La période de prévision est échue; ceci était le dernier TAF qui a été émis
TAF CYDL 292338Z 3000/3002 VRB03KT P6SM SCT050
RMK FCST BASED ON AUTO OBS. NXT FCST WILL BE ISSUED AT 301545Z=
Your time UTC time
Weather data provided by Environment Canada and NAV CANADA